Time,TemperatureF,DewpointF,PressureIn,WindDirection,WindDirectionDegrees,WindSpeedMPH,WindSpeedGustMPH,Humidity,HourlyPrecipIn,Conditions,Clouds,dailyrainin,SolarRadiationWatts/m^2,SoftwareType,DateUTC
2014-10-01 15:34:00,91.5,71.4,29.73,SW,223,4.0,10.0,52,0.00,,,0.00,172,HR-IXPWINDi_r2_v1.2.,2014-10-01 19:34:00,
2014-10-01 15:40:00,91.2,72.2,29.73,South,188,5.0,10.0,54,0.00,,,0.00,255,HR-IXPWINDi_r2_v1.2.,2014-10-01 19:40:00,
2014-10-01 15:45:00,91.4,72.4,29.73,South,175,5.0,8.0,54,0.00,,,0.00,933,HR-IXPWINDi_r2_v1.2.,2014-10-01 19:45:00,
2014-10-01 15:50:00,91.5,71.9,29.72,SSW,203,4.0,8.0,53,0.00,,,0.00,276,HR-IXPWINDi_r2_v1.2.,2014-10-01 19:50:00,
2014-10-01 15:55:00,91.4,71.3,29.72,SSW,200,6.0,8.0,52,0.00,,,0.00,185,HR-IXPWINDi_r2_v1.2.,2014-10-01 19:55:00,
2014-10-01 16:00:00,91.1,71.6,29.73,SE,146,4.0,8.0,53,0.00,,,0.00,188,HR-IXPWINDi_r2_v1.2.,2014-10-01 20:00:00,
2014-10-01 16:05:00,91.0,71.5,29.72,SW,217,1.0,7.0,53,0.00,,,0.00,851,HR-IXPWINDi_r2_v1.2.,2014-10-01 20:05:00,
2014-10-01 16:11:00,91.6,72.6,29.72,SSW,195,5.0,6.0,54,0.00,,,0.00,183,HR-IXPWINDi_r2_v1.2.,2014-10-01 20:11:00,
2014-10-01 16:19:00,92.6,71.8,29.72,WSW,240,8.0,12.0,51,0.00,,,0.00,826,HR-IXPWINDi_r2_v1.2.,2014-10-01 20:19:00,
2014-10-01 16:24:00,92.3,70.3,29.72,SSE,153,6.0,12.0,49,0.00,,,0.00,167,HR-IXPWINDi_r2_v1.2.,2014-10-01 20:24:00,
2014-10-01 16:29:00,91.7,70.4,29.72,South,190,4.0,10.0,50,0.00,,,0.00,160,HR-IXPWINDi_r2_v1.2.,2014-10-01 20:29:00,
2014-10-01 16:34:00,91.4,70.7,29.72,SSE,160,3.0,8.0,51,0.00,,,0.00,199,HR-IXPWINDi_r2_v1.2.,2014-10-01 20:34:00,
2014-10-01 16:39:00,91.9,71.2,29.72,SSW,208,2.0,7.0,51,0.00,,,0.00,793,HR-IXPWINDi_r2_v1.2.,2014-10-01 20:39:00,
2014-10-01 16:44:00,92.6,71.2,29.71,WSW,238,8.0,10.0,50,0.00,,,0.00,756,HR-IXPWINDi_r2_v1.2.,2014-10-01 20:44:00,
2014-10-01 16:50:00,92.9,72.1,29.71,WSW,258,4.0,14.0,51,0.00,,,0.00,705,HR-IXPWINDi_r2_v1.2.,2014-10-01 20:50:00,
2014-10-01 16:55:00,93.3,71.9,29.71,South,171,5.0,14.0,50,0.00,,,0.00,661,HR-IXPWINDi_r2_v1.2.,2014-10-01 20:55:00,
2014-10-01 17:00:00,93.2,71.2,29.71,SSE,150,3.0,8.0,49,0.00,,,0.00,538,HR-IXPWINDi_r2_v1.2.,2014-10-01 21:00:00,
2014-10-01 17:05:00,93.4,71.9,29.71,South,180,1.0,7.0,50,0.00,,,0.00,700,HR-IXPWINDi_r2_v1.2.,2014-10-01 21:05:00,
2014-10-01 17:10:00,93.7,72.2,29.71,SW,225,8.0,8.0,50,0.00,,,0.00,696,HR-IXPWINDi_r2_v1.2.,2014-10-01 21:10:00,
2014-10-01 17:15:00,93.8,70.5,29.71,WSW,243,10.0,14.0,47,0.00,,,0.00,659,HR-IXPWINDi_r2_v1.2.,2014-10-01 21:15:00,
2014-10-01 17:21:00,93.6,71.5,29.71,WSW,241,7.0,14.0,49,0.00,,,0.00,615,HR-IXPWINDi_r2_v1.2.,2014-10-01 21:21:00,
2014-10-01 17:26:00,93.5,70.8,29.71,SW,230,6.0,12.0,48,0.00,,,0.00,587,HR-IXPWINDi_r2_v1.2.,2014-10-01 21:26:00,
2014-10-01 17:31:00,93.5,70.8,29.71,SW,226,11.0,11.0,48,0.00,,,0.00,555,HR-IXPWINDi_r2_v1.2.,2014-10-01 21:31:00,
2014-10-01 17:36:00,93.5,70.8,29.71,SSW,211,6.0,11.0,48,0.00,,,0.00,561,HR-IXPWINDi_r2_v1.2.,2014-10-01 21:36:00,
2014-10-01 17:42:00,93.6,70.9,29.71,WSW,239,6.0,11.0,48,0.00,,,0.00,547,HR-IXPWINDi_r2_v1.2.,2014-10-01 21:42:00,
2014-10-01 17:47:00,93.7,70.4,29.70,SSW,213,4.0,10.0,47,0.00,,,0.00,510,HR-IXPWINDi_r2_v1.2.,2014-10-01 21:47:00,
2014-10-01 17:52:00,93.7,70.4,29.70,SW,229,5.0,11.0,47,0.00,,,0.00,490,HR-IXPWINDi_r2_v1.2.,2014-10-01 21:52:00,
2014-10-01 17:57:00,93.7,71.0,29.70,SW,214,5.0,11.0,48,0.00,,,0.00,450,HR-IXPWINDi_r2_v1.2.,2014-10-01 21:57:00,
2014-10-01 18:02:00,93.6,70.9,29.71,WSW,255,7.0,11.0,48,0.00,,,0.00,438,HR-IXPWINDi_r2_v1.2.,2014-10-01 22:02:00,
2014-10-01 18:08:00,93.6,70.3,29.70,SW,217,5.0,10.0,47,0.00,,,0.00,439,HR-IXPWINDi_r2_v1.2.,2014-10-01 22:08:00,
2014-10-01 18:13:00,93.6,70.3,29.70,South,176,2.0,10.0,47,0.00,,,0.00,427,HR-IXPWINDi_r2_v1.2.,2014-10-01 22:13:00,
2014-10-01 18:18:00,93.8,70.5,29.70,SSW,196,4.0,9.0,47,0.00,,,0.00,383,HR-IXPWINDi_r2_v1.2.,2014-10-01 22:18:00,
2014-10-01 18:23:00,93.8,70.5,29.70,South,169,5.0,12.0,47,0.00,,,0.00,355,HR-IXPWINDi_r2_v1.2.,2014-10-01 22:23:00,
2014-10-01 18:29:00,93.6,70.3,29.70,South,170,5.0,12.0,47,0.00,,,0.00,357,HR-IXPWINDi_r2_v1.2.,2014-10-01 22:29:00,
2014-10-01 18:34:00,93.6,70.3,29.70,SW,232,2.0,8.0,47,0.00,,,0.00,346,HR-IXPWINDi_r2_v1.2.,2014-10-01 22:34:00,
2014-10-01 18:39:00,93.7,70.4,29.71,SSW,199,3.0,7.0,47,0.00,,,0.00,332,HR-IXPWINDi_r2_v1.2.,2014-10-01 22:39:00,
2014-10-01 18:44:00,93.8,70.5,29.71,SSE,166,5.0,9.0,47,0.00,,,0.00,309,HR-IXPWINDi_r2_v1.2.,2014-10-01 22:44:00,
2014-10-01 18:49:00,93.6,70.9,29.71,South,170,5.0,10.0,48,0.00,,,0.00,281,HR-IXPWINDi_r2_v1.2.,2014-10-01 22:49:00,
2014-10-01 18:54:00,93.5,70.8,29.71,South,175,9.0,10.0,48,0.00,,,0.00,258,HR-IXPWINDi_r2_v1.2.,2014-10-01 22:54:00,
2014-10-01 18:59:00,93.0,70.4,29.71,SSE,165,2.0,13.0,48,0.00,,,0.00,237,HR-IXPWINDi_r2_v1.2.,2014-10-01 22:59:00,
2014-10-01 19:04:00,92.8,70.8,29.71,SSE,167,9.0,13.0,49,0.00,,,0.00,214,HR-IXPWINDi_r2_v1.2.,2014-10-01 23:04:00,
2014-10-01 19:09:00,92.6,71.2,29.71,South,171,5.0,10.0,50,0.00,,,0.00,195,HR-IXPWINDi_r2_v1.2.,2014-10-01 23:09:00,
2014-10-01 19:15:00,92.4,71.0,29.71,South,181,4.0,10.0,50,0.00,,,0.00,162,HR-IXPWINDi_r2_v1.2.,2014-10-01 23:15:00,
2014-10-01 19:20:00,92.3,70.9,29.71,SE,146,5.0,8.0,50,0.00,,,0.00,142,HR-IXPWINDi_r2_v1.2.,2014-10-01 23:20:00,
2014-10-01 19:25:00,92.2,70.8,29.71,SSE,164,4.0,8.0,50,0.00,,,0.00,120,HR-IXPWINDi_r2_v1.2.,2014-10-01 23:25:00,
2014-10-01 19:30:00,92.0,71.2,29.71,SSE,159,3.0,9.0,51,0.00,,,0.00,100,HR-IXPWINDi_r2_v1.2.,2014-10-01 23:30:00,
2014-10-01 19:34:00,91.8,71.1,29.71,SSE,159,5.0,9.0,51,0.00,,,0.00,88,HR-IXPWINDi_r2_v1.2.,2014-10-01 23:34:00,
2014-10-01 19:39:00,91.6,71.5,29.71,SSE,163,5.0,9.0,52,0.00,,,0.00,72,HR-IXPWINDi_r2_v1.2.,2014-10-01 23:39:00,
2014-10-01 19:44:00,91.5,71.4,29.71,South,186,4.0,7.0,52,0.00,,,0.00,54,HR-IXPWINDi_r2_v1.2.,2014-10-01 23:44:00,
2014-10-01 19:49:00,91.4,71.3,29.71,South,173,3.0,6.0,52,0.00,,,0.00,46,HR-IXPWINDi_r2_v1.2.,2014-10-01 23:49:00,
2014-10-01 19:54:00,91.3,71.2,29.71,South,174,1.0,6.0,52,0.00,,,0.00,35,HR-IXPWINDi_r2_v1.2.,2014-10-01 23:54:00,
2014-10-01 19:59:00,91.2,71.1,29.71,South,170,3.0,4.0,52,0.00,,,0.00,26,HR-IXPWINDi_r2_v1.2.,2014-10-01 23:59:00,
2014-10-01 20:05:00,91.1,71.6,29.71,South,169,1.0,4.0,53,0.00,,,0.00,16,HR-IXPWINDi_r2_v1.2.,2014-10-02 00:05:00,
2014-10-01 20:10:00,90.9,71.4,29.72,SSE,161,4.0,4.0,53,0.00,,,0.00,9,HR-IXPWINDi_r2_v1.2.,2014-10-02 00:10:00,
2014-10-01 20:15:00,90.7,71.2,29.72,South,171,5.0,5.0,53,0.00,,,0.00,0,HR-IXPWINDi_r2_v1.2.,2014-10-02 00:15:00,
2014-10-01 20:20:00,90.5,71.5,29.72,SSE,164,2.0,5.0,54,0.00,,,0.00,0,HR-IXPWINDi_r2_v1.2.,2014-10-02 00:20:00,
2014-10-01 20:25:00,90.3,71.4,29.72,SE,138,7.0,10.0,54,0.00,,,0.00,0,HR-IXPWINDi_r2_v1.2.,2014-10-02 00:25:00,
2014-10-01 20:30:00,89.9,72.1,29.72,SSE,150,1.0,10.0,56,0.00,,,0.00,0,HR-IXPWINDi_r2_v1.2.,2014-10-02 00:30:00,
2014-10-01 20:35:00,89.4,72.6,29.72,SSE,160,7.0,10.0,58,0.00,,,0.00,0,HR-IXPWINDi_r2_v1.2.,2014-10-02 00:35:00,
2014-10-01 20:40:00,88.9,72.7,29.72,SE,142,7.0,10.0,59,0.00,,,0.00,0,HR-IXPWINDi_r2_v1.2.,2014-10-02 00:40:00,
2014-10-01 20:45:00,88.5,73.3,29.73,South,178,4.0,10.0,61,0.00,,,0.00,0,HR-IXPWINDi_r2_v1.2.,2014-10-02 00:45:00,
2014-10-01 20:50:00,88.1,73.4,29.73,SSE,160,1.0,10.0,62,0.00,,,0.00,0,HR-IXPWINDi_r2_v1.2.,2014-10-02 00:50:00,
2014-10-01 20:56:00,87.7,73.0,29.73,SSE,163,3.0,8.0,62,0.00,,,0.00,0,HR-IXPWINDi_r2_v1.2.,2014-10-02 00:56:00,
2014-10-01 21:01:00,87.4,73.2,29.73,SSE,161,4.0,8.0,63,0.00,,,0.00,0,HR-IXPWINDi_r2_v1.2.,2014-10-02 01:01:00,
2014-10-01 21:06:00,87.0,73.3,29.73,SE,124,6.0,9.0,64,0.00,,,0.00,0,HR-IXPWINDi_r2_v1.2.,2014-10-02 01:06:00,
2014-10-01 21:11:00,86.6,73.4,29.73,SSE,159,3.0,9.0,65,0.00,,,0.00,0,HR-IXPWINDi_r2_v1.2.,2014-10-02 01:11:00,
2014-10-01 21:16:00,86.4,73.7,29.73,South,171,7.0,9.0,66,0.00,,,0.00,0,HR-IXPWINDi_r2_v1.2.,2014-10-02 01:16:00,
2014-10-01 21:20:00,86.2,73.5,29.73,SSE,167,4.0,9.0,66,0.00,,,0.00,0,HR-IXPWINDi_r2_v1.2.,2014-10-02 01:20:00,
2014-10-01 21:25:00,86.0,73.7,29.74,SSE,157,4.0,10.0,67,0.00,,,0.00,0,HR-IXPWINDi_r2_v1.2.,2014-10-02 01:25:00,
2014-10-01 21:30:00,85.8,73.5,29.74,SSE,165,5.0,10.0,67,0.00,,,0.00,0,HR-IXPWINDi_r2_v1.2.,2014-10-02 01:30:00,
2014-10-01 21:35:00,85.6,73.3,29.74,SSE,148,5.0,9.0,67,0.00,,,0.00,0,HR-IXPWINDi_r2_v1.2.,2014-10-02 01:35:00,
2014-10-01 21:40:00,85.4,73.6,29.75,South,173,5.0,10.0,68,0.00,,,0.00,0,HR-IXPWINDi_r2_v1.2.,2014-10-02 01:40:00,
2014-10-01 21:46:00,85.3,73.5,29.75,SSE,160,6.0,10.0,68,0.00,,,0.00,0,HR-IXPWINDi_r2_v1.2.,2014-10-02 01:46:00,
2014-10-01 21:51:00,85.2,73.4,29.75,SSE,155,5.0,10.0,68,0.00,,,0.00,0,HR-IXPWINDi_r2_v1.2.,2014-10-02 01:51:00,
2014-10-01 21:56:00,85.1,73.3,29.75,SE,142,7.0,10.0,68,0.00,,,0.00,0,HR-IXPWINDi_r2_v1.2.,2014-10-02 01:56:00,
2014-10-01 22:01:00,84.9,73.1,29.76,SSE,163,6.0,9.0,68,0.00,,,0.00,0,HR-IXPWINDi_r2_v1.2.,2014-10-02 02:01:00,
2014-10-01 22:06:00,84.8,73.0,29.76,South,182,5.0,11.0,68,0.00,,,0.00,0,HR-IXPWINDi_r2_v1.2.,2014-10-02 02:06:00,
2014-10-01 22:11:00,84.7,73.4,29.76,SSE,163,6.0,11.0,69,0.00,,,0.00,0,HR-IXPWINDi_r2_v1.2.,2014-10-02 02:11:00,
2014-10-01 22:16:00,84.6,73.3,29.76,SSE,168,4.0,10.0,69,0.00,,,0.00,0,HR-IXPWINDi_r2_v1.2.,2014-10-02 02:16:00,
2014-10-01 22:21:00,84.5,73.2,29.77,South,170,1.0,10.0,69,0.00,,,0.00,0,HR-IXPWINDi_r2_v1.2.,2014-10-02 02:21:00,
2014-10-01 22:26:00,84.3,73.0,29.77,SE,139,5.0,10.0,69,0.00,,,0.00,0,HR-IXPWINDi_r2_v1.2.,2014-10-02 02:26:00,
2014-10-01 22:31:00,84.2,73.3,29.77,South,183,1.0,10.0,70,0.00,,,0.00,0,HR-IXPWINDi_r2_v1.2.,2014-10-02 02:31:00,
2014-10-01 22:37:00,84.0,73.1,29.77,SSE,157,4.0,10.0,70,0.00,,,0.00,0,HR-IXPWINDi_r2_v1.2.,2014-10-02 02:37:00,
2014-10-01 22:42:00,83.9,73.0,29.77,SSE,161,7.0,13.0,70,0.00,,,0.00,0,HR-IXPWINDi_r2_v1.2.,2014-10-02 02:42:00,
2014-10-01 22:47:00,83.7,73.2,29.77,South,184,8.0,13.0,71,0.00,,,0.00,0,HR-IXPWINDi_r2_v1.2.,2014-10-02 02:47:00,
2014-10-01 22:52:00,83.5,73.1,29.77,South,173,5.0,10.0,71,0.00,,,0.00,0,HR-IXPWINDi_r2_v1.2.,2014-10-02 02:52:00,
2014-10-01 22:57:00,83.3,73.3,29.77,SSE,164,10.0,12.0,72,0.00,,,0.00,0,HR-IXPWINDi_r2_v1.2.,2014-10-02 02:57:00,
2014-10-01 23:02:00,83.1,73.5,29.78,South,173,6.0,12.0,73,0.00,,,0.00,0,HR-IXPWINDi_r2_v1.2.,2014-10-02 03:02:00,